Theta_e
316 315 315 315 314 314 314 315 315 315 315 315 315 315 315 315 316 316 317 317 317 317 317 318 320 320 317 309 311 317 344 351 341 328 317 315 312 312 309 313 315 314 316 321 325 328 329
316 315 315 315 314 313 314 314 314 314 314 314 315 315 316 316 316 316 317 317 317 316 317 319 320 319 313 305 317 321 337 337 335 323 317 316 314 315 313 316 315 315 318 321 325 327 329
316 315 315 314 313 314 314 313 313 313 313 314 314 314 315 315 315 316 316 316 315 316 318 321 320 318 312 310 318 319 323 326 329 322 315 316 317 316 317 314 316 323 319 322 323 326 325
315 315 314 314 314 313 313 313 313 313 313 313 314 314 314 315 315 315 315 315 314 317 320 322 322 320 310 319 320 321 323 318 321 320 318 319 317 314 313 317 321 319 320 315 321 325 327
315 315 314 313 314 314 314 313 312 313 313 313 313 314 314 315 315 314 313 313 315 320 322 322 319 315 313 327 319 323 323 315 315 319 318 317 317 312 313 313 315 316 312 314 317 325 325
314 314 314 313 313 313 314 314 313 313 314 314 314 313 314 314 313 312 311 312 314 320 322 322 323 313 318 315 318 321 321 315 313 313 312 311 310 308 310 311 305 311 313 314 315 320 324
314 314 313 314 313 313 313 313 312 312 313 313 313 313 313 312 312 310 310 308 309 308 314 312 312 314 314 317 319 319 318 315 312 311 306 308 304 302 307 313 315 316 316 315 318 322 321
313 313 313 313 313 312 312 311 312 312 312 312 312 312 312 311 310 310 307 300 304 303 298 304 305 307 312 314 309 314 319 313 310 306 304 304 301 307 310 311 312 316 315 315 317 321 321
313 313 313 313 312 313 313 312 312 312 312 312 312 311 311 310 309 307 302 302 306 306 298 302 305 306 308 310 307 309 315 313 310 307 303 301 304 307 308 308 308 313 314 315 314 318 320
313 313 313 313 313 313 312 312 312 312 312 312 312 311 310 307 303 303 303 307 307 305 298 302 305 309 311 311 306 314 316 314 307 307 304 304 306 305 306 307 310 307 315 317 315 314 309
313 313 313 313 313 313 312 312 311 311 311 311 311 310 309 307 303 302 304 307 307 305 290 304 307 315 313 310 308 309 317 314 308 306 305 303 302 303 304 307 311 310 314 313 315 314 312
313 313 312 312 312 313 312 311 311 311 311 310 310 309 308 305 304 305 307 306 306 298 289 301 309 307 306 308 308 311 311 314 314 308 305 307 307 307 307 311 312 311 310 310 312 311 303
313 314 313 312 313 313 312 311 311 311 310 309 308 307 306 306 301 306 306 303 296 291 301 299 302 304 304 304 306 307 306 306 305 302 302 305 305 307 308 307 312 310 308 300 300 300 299
313 313 313 313 312 312 312 311 311 311 310 308 306 305 306 307 308 308 302 297 289 295 298 302 303 303 300 303 305 305 305 303 309 308 303 300 297 305 308 307 306 307 308 302 296 297 300
313 313 312 312 311 312 312 311 311 310 309 307 305 304 302 305 307 306 297 288 292 296 302 302 303 299 300 302 302 304 304 304 307 308 302 299 299 305 307 309 311 306 303 311 305 300 301
312 311 312 311 311 312 311 311 311 310 309 307 301 299 298 308 309 301 293 289 293 300 303 301 297 300 297 299 299 301 301 306 306 309 312 304 298 304 306 309 308 308 310 302 303 298 296
313 312 311 311 311 311 311 311 311 310 308 307 299 292 302 309 303 297 289 290 294 299 302 299 298 299 300 297 299 299 300 304 306 307 310 308 303 301 304 303 303 304 303 304 306 303 299
312 312 311 311 311 310 310 311 310 308 306 303 297 287 302 306 297 295 292 293 295 298 300 298 301 301 299 299 298 298 298 303 307 307 303 307 304 300 301 306 307 308 306 307 302 301 302
312 311 310 311 310 309 310 310 309 308 307 302 292 293 302 301 291 294 297 296 299 299 300 300 298 301 302 298 296 299 301 306 307 306 307 305 301 297 299 304 306 303 305 307 307 307 305
311 310 310 310 309 309 309 310 309 308 307 303 294 288 296 299 296 294 293 294 295 302 301 303 302 303 303 301 304 301 301 306 308 307 319 313 307 303 298 301 305 301 303 305 305 301 302
310 310 310 310 309 309 309 310 309 308 307 302 295 292 295 293 295 296 294 293 293 293 301 302 303 303 302 299 301 301 304 305 307 313 314 312 304 305 306 308 306 304 302 303 303 305 303
309 309 309 309 309 309 309 310 309 308 305 299 292 293 294 293 294 294 293 292 293 296 297 297 299 301 303 301 302 300 304 305 306 312 313 307 306 302 301 306 305 302 304 304 305 305 306
308 308 309 309 309 309 309 309 309 308 304 297 298 298 293 291 292 291 292 293 294 295 298 300 299 297 298 302 306 308 309 311 312 310 312 313 306 305 301 303 302 299 304 305 306 308 307
308 308 308 308 308 308 308 308 308 308 306 303 298 296 290 286 290 291 294 295 294 295 293 297 298 296 301 306 308 310 306 308 310 312 313 313 310 303 302 301 292 303 309 309 307 308 311
308 308 308 308 308 308 308 308 308 308 307 303 301 297 292 285 290 290 292 294 296 297 294 295 298 301 305 302 302 303 305 306 307 310 311 315 307 301 298 298 303 305 309 306 305 306 312
308 308 308 309 308 308 308 308 308 308 308 305 302 301 295 287 286 291 292 294 291 292 293 295 300 303 305 304 304 299 297 301 303 306 312 312 312 306 303 297 295 307 313 316 315 304 317
308 307 308 308 308 308 308 307 307 307 308 304 304 303 298 289 292 293 290 291 296 294 292 294 295 298 307 305 300 300 299 305 300 302 305 307 306 303 304 301 303 311 313 316 304 309 318
307 308 308 308 307 307 307 307 307 307 307 304 302 303 298 292 293 295 295 292 295 295 290 294 293 299 303 302 303 302 300 305 305 309 306 305 303 301 304 302 299 312 313 310 315 319 320
308 308 307 307 307 307 307 306 306 306 306 306 299 303 304 296 294 299 299 300 300 299 296 296 294 294 299 299 303 303 305 307 306 301 311 303 307 304 306 305 312 313 312 317 322 320 321
Wind_Speed
20 20 20 21 21 21 21 21 21 22 22 23 23 24 24 24 24 23 22 22 21 22 19 18 16 11 5 3 13 1 4 5 11 14 16 13 15 9 10 7 7 8 8 8 8 15 14
18 19 20 20 21 21 22 22 22 23 23 23 23 23 23 24 24 25 23 22 22 21 21 18 11 4 4 10 2 4 7 9 8 18 18 13 13 9 9 5 9 4 4 3 9 13 13
17 18 19 19 19 19 20 21 23 24 24 24 24 23 23 24 25 27 26 24 25 22 21 13 6 5 4 19 7 2 2 4 11 17 18 15 6 11 5 4 4 7 6 10 10 15 8
18 18 19 19 19 19 19 19 21 22 23 24 25 26 26 26 26 27 27 26 26 22 10 3 9 3 9 2 2 6 6 4 7 7 12 12 3 1 4 3 4 3 5 7 9 14 10
18 18 19 19 19 20 20 21 22 22 21 22 24 25 27 27 27 26 28 28 20 2 7 11 5 3 9 3 4 0 7 6 7 7 4 4 6 5 5 7 6 4 8 9 10 11 10
18 19 20 21 20 19 19 20 22 22 23 23 22 22 24 26 28 29 30 21 3 3 5 4 4 4 7 2 1 1 4 9 5 9 7 6 5 9 5 10 14 12 9 7 10 12 10
17 19 20 20 21 20 21 21 23 23 23 24 24 25 25 26 26 27 17 2 3 4 4 7 3 7 5 4 4 3 4 7 6 6 9 6 10 16 18 15 9 15 14 16 9 11 12
18 18 19 18 19 20 22 22 22 24 25 25 24 25 27 29 27 26 4 4 5 3 12 13 21 21 18 7 9 13 5 7 8 10 7 6 16 13 14 14 9 15 18 16 8 10 12
18 18 19 19 19 19 20 21 21 21 22 23 25 25 25 30 32 2 6 2 5 3 6 9 6 6 4 16 12 19 13 9 7 11 11 13 7 10 12 12 13 14 19 15 14 9 3
18 17 17 18 18 18 18 20 22 23 23 23 24 24 24 31 2 7 3 2 9 3 5 6 4 4 6 7 8 16 17 8 5 16 10 9 9 16 13 17 15 18 14 15 15 12 13
18 18 18 19 19 20 19 18 21 21 23 24 25 24 20 15 10 6 2 6 7 3 7 2 3 3 4 7 5 8 13 9 11 10 8 8 10 13 20 19 14 10 12 17 15 15 7
18 18 19 19 20 20 20 18 21 22 23 25 24 25 20 2 4 10 12 9 3 4 10 3 3 4 4 6 2 6 10 5 7 10 4 14 3 14 14 14 17 10 11 6 5 8 10
19 18 19 19 19 19 20 19 22 23 25 27 28 26 18 5 5 2 7 4 5 8 2 4 3 2 6 3 5 7 15 15 12 15 15 11 14 7 9 14 13 14 13 7 10 8 8
18 17 17 17 17 17 18 19 21 23 25 28 32 28 3 7 5 8 3 3 11 5 12 1 3 3 4 0 5 11 13 18 15 14 11 14 14 17 14 16 12 18 21 11 16 11 12
17 18 18 17 18 17 18 18 20 21 23 27 29 5 4 3 9 3 5 10 9 9 4 3 3 5 4 1 4 9 10 19 19 18 13 12 17 3 12 8 17 10 14 14 13 2 6
18 18 17 18 18 17 17 18 18 19 22 27 9 6 5 3 8 5 6 12 8 7 3 3 7 4 3 1 3 1 6 6 12 18 18 11 6 16 10 12 8 11 13 12 7 18 17
18 17 18 18 17 16 17 19 18 16 20 20 3 6 5 2 4 3 7 8 10 11 6 8 8 7 4 2 4 3 3 2 5 15 19 15 13 6 6 16 22 9 9 2 6 7 14
18 19 17 17 15 17 18 17 16 14 17 8 4 5 3 2 4 2 5 5 3 6 12 14 5 7 9 7 8 6 8 8 3 11 12 13 10 14 20 4 9 18 19 17 13 12 5
18 16 17 17 15 18 17 16 13 12 10 6 7 5 3 3 5 5 4 5 6 7 7 8 14 13 9 8 7 11 10 9 12 3 7 9 6 9 11 16 15 10 19 19 15 11 17
18 17 17 17 15 16 15 15 12 9 8 3 4 6 2 2 2 2 4 6 6 5 10 7 7 7 7 7 8 6 5 5 2 12 6 8 8 11 14 19 16 17 16 17 19 17 14
18 17 17 16 17 15 16 13 9 6 6 2 2 2 3 5 1 8 4 4 10 6 4 4 7 14 11 10 14 17 16 17 17 10 5 9 7 15 24 26 28 25 24 20 20 24 22
18 18 17 17 17 18 17 14 11 6 3 2 4 3 4 7 10 8 4 3 6 5 3 10 7 12 12 9 14 14 14 16 12 3 6 5 3 2 16 25 23 28 27 23 23 24 18
19 19 18 19 19 19 18 15 12 6 4 2 2 2 3 6 5 5 4 4 3 8 8 13 11 10 11 11 6 12 13 13 7 3 5 6 1 4 9 12 17 22 25 24 21 22 21
19 19 19 19 19 19 18 17 12 7 8 2 2 2 3 6 6 6 9 14 16 15 12 18 15 10 4 12 17 16 14 16 13 14 8 4 6 2 8 4 10 17 22 24 24 20 16
21 20 20 20 20 19 17 15 13 10 7 3 2 2 3 7 7 13 14 11 14 13 15 18 15 13 11 8 7 8 9 8 11 9 11 5 7 3 4 6 10 10 5 18 21 23 17
22 21 20 20 19 18 17 16 15 13 11 4 3 2 2 3 6 9 7 8 9 9 10 6 7 9 5 4 5 6 10 11 8 12 12 16 13 7 2 10 7 5 7 7 3 15 10
20 21 20 19 17 16 16 15 12 10 12 4 3 6 3 5 12 15 9 9 6 5 6 7 9 6 4 3 8 7 8 4 9 12 8 4 3 6 8 10 6 8 17 6 11 6 8
20 19 19 16 14 15 14 13 13 12 14 4 3 7 5 4 14 20 21 16 11 7 5 9 9 2 3 4 5 3 4 1 4 8 10 8 8 4 3 8 6 22 13 6 5 8 14
17 17 16 15 14 14 14 11 9 11 12 5 3 4 5 5 8 14 18 18 20 20 7 4 7 8 4 4 2 3 3 2 2 8 5 7 6 8 9 3 14 12 10 2 7 13 12
Wind_Direction
5 6 4 3 1 360 359 357 355 352 349 347 344 342 339 335 332 328 323 321 317 318 316 310 305 307 287 219 249 296 56 161 178 187 192 181 178 180 200 200 203 230 251 216 193 168 174
3 2 1 0 359 358 355 354 351 349 347 345 343 340 337 334 331 326 321 319 315 314 310 305 290 273 233 262 192 111 104 130 164 188 193 189 198 191 215 219 201 168 231 165 167 155 157
0 359 357 357 357 355 353 351 349 345 344 342 341 339 335 333 330 324 320 316 315 311 306 295 226 203 231 250 136 262 253 207 168 189 182 196 212 196 181 192 177 130 109 97 143 156 150
355 355 354 352 352 351 350 347 346 344 343 340 338 337 334 332 329 322 316 316 314 307 298 180 161 192 250 231 189 260 199 189 174 200 206 175 192 215 222 139 102 135 145 166 170 165 155
352 352 351 349 350 348 345 346 345 344 343 340 338 336 333 330 327 322 315 315 315 356 124 138 156 224 260 298 249 249 181 166 137 207 232 183 180 218 175 190 152 187 198 202 167 192 157
349 348 347 348 348 347 344 344 342 342 341 340 336 334 331 329 327 324 320 311 247 115 149 197 253 254 241 220 130 244 175 166 141 147 147 189 175 195 178 197 202 188 209 204 175 178 190
346 344 344 345 344 346 343 343 341 340 340 338 334 334 332 328 327 324 329 326 239 171 205 236 236 257 283 268 261 169 144 164 127 152 179 193 201 202 191 198 208 205 213 195 173 162 187
345 343 341 344 343 343 343 342 339 338 337 336 333 334 332 328 326 322 286 348 67 352 299 244 250 258 260 287 266 224 178 193 189 181 143 177 221 202 198 202 189 203 212 207 148 153 192
341 340 341 340 340 340 339 339 336 334 333 332 331 332 334 328 322 343 319 139 345 310 268 290 224 242 231 193 225 243 183 168 182 184 185 215 211 192 196 200 193 207 205 198 196 166 130
337 336 337 336 335 333 334 333 335 333 331 331 328 330 337 334 296 335 308 159 336 260 282 273 237 242 168 169 229 211 194 159 173 204 175 220 213 195 199 209 198 213 217 209 192 179 225
333 332 332 333 331 330 329 332 334 332 330 328 326 324 331 334 298 287 58 324 321 218 290 153 177 110 137 204 324 182 178 184 189 168 189 190 187 195 203 207 202 214 186 192 192 197 184
325 321 325 329 331 329 328 332 333 331 329 325 322 318 329 317 244 254 304 308 173 219 247 266 190 188 178 222 254 116 172 183 186 185 196 221 169 207 202 203 196 143 122 118 114 185 225
319 322 323 321 323 326 328 331 331 330 329 325 320 315 310 251 237 189 311 266 186 223 349 214 173 161 303 211 220 186 177 181 179 190 203 212 229 224 200 190 194 195 169 172 199 200 230
319 317 320 325 326 325 325 324 326 328 329 326 321 314 274 210 244 256 268 181 226 203 223 301 261 266 269 336 224 209 183 189 203 185 189 208 219 215 193 212 183 193 200 205 208 207 220
315 315 315 317 318 322 323 319 317 324 329 326 320 322 280 244 210 218 215 214 211 202 206 225 268 267 253 230 247 201 208 205 193 192 199 199 222 201 205 186 186 174 215 230 233 61 234
306 310 311 311 312 314 316 318 317 324 330 328 320 320 278 347 156 168 209 234 221 215 219 207 231 218 209 253 279 251 198 194 202 198 200 196 214 213 175 208 182 209 171 196 216 226 234
296 301 304 307 313 315 320 320 324 328 332 326 315 312 21 145 182 202 229 231 229 241 221 225 231 241 215 220 246 272 270 241 212 201 202 192 214 191 218 216 215 188 197 219 250 239 234
305 308 306 304 306 316 315 317 323 333 337 344 342 296 99 197 232 206 225 211 250 238 232 236 231 223 216 226 265 257 240 252 192 148 169 205 212 229 236 230 259 232 218 209 222 196 233
303 305 306 307 309 313 314 314 320 328 355 331 312 275 322 245 246 226 283 279 270 246 218 196 214 219 216 232 235 232 230 244 234 225 184 163 200 216 239 239 230 237 226 222 233 250 215
303 296 296 305 300 300 304 307 307 317 335 324 298 306 262 226 309 317 347 275 256 275 256 242 237 197 204 222 225 257 231 261 259 234 205 171 192 216 233 233 233 229 238 222 220 228 224
303 300 297 292 293 295 296 300 296 304 340 304 234 279 340 312 154 330 281 296 289 280 262 245 208 226 222 237 243 244 250 264 273 268 258 186 213 231 231 228 215 219 226 217 219 232 232
307 301 299 293 296 293 294 291 291 300 39 228 292 314 346 291 294 291 254 226 266 308 297 257 244 246 248 238 248 262 237 235 252 228 220 209 205 260 249 239 233 218 217 225 219 222 229
306 306 301 296 293 293 287 287 287 285 154 211 207 251 279 272 287 287 262 308 275 348 273 257 303 306 278 274 296 280 262 270 263 256 247 165 103 330 285 240 230 238 221 220 224 223 209
300 302 303 305 306 304 297 287 285 270 198 200 228 175 263 267 257 272 297 299 293 296 277 285 292 284 254 330 307 261 248 241 235 228 212 205 115 107 295 225 213 237 232 225 216 218 217
296 297 300 301 303 305 302 290 285 267 224 200 181 190 236 267 275 284 265 286 294 293 270 267 277 268 320 298 267 242 218 214 217 198 186 211 106 61 317 281 283 229 187 219 218 237 230
292 293 293 296 295 301 298 289 282 267 262 211 194 179 205 279 257 269 322 299 290 295 285 255 317 315 264 239 229 233 216 211 181 157 191 107 108 100 354 288 269 45 340 349 298 226 185
298 293 295 290 292 295 297 291 283 270 260 206 230 191 213 241 253 268 265 284 288 305 290 304 343 323 325 228 223 218 229 253 204 192 172 135 43 55 316 265 268 8 328 269 189 194 157
292 295 293 290 288 290 295 289 292 284 273 210 229 193 218 258 270 263 267 269 278 282 291 334 315 62 299 243 246 159 223 210 210 164 165 155 139 128 305 251 246 358 317 263 43 104 129
292 291 291 290 285 281 293 295 314 309 287 235 242 197 206 241 278 293 276 259 252 252 267 253 305 304 286 306 352 284 257 261 292 175 200 157 158 142 198 282 324 341 290 345 98 85 80